Location: Rumah Apan
(2.7833°N, 113.9500°E)
Time: 05:40:29
(UTC+00:00)

Daily predictions for brighter satellites

Satellite Brightness Start Highest point End
(mag) Time Altitude Azimuth Time Altitude Azimuth Time Altitude Azimuth
ATLAS 3B CENTAUR R/B 3.9 10:52:51 10° N 10:56:02 18° NE 11:00:50 10° E
Spot 2 4.2 10:54:40 10° SSE 10:59:04 69° ENE 11:03:44 10° N
Cosmos 1602 Rocket 3.8 10:56:05 10° SSE 11:00:22 49° E 11:04:35 10° NNE
GPS 2-14 Rocket1 2.5 10:58:23 10° WNW 11:02:09 89° SSW 11:05:54 10° ESE
DMSP B5D2-2 4.0 11:02:11 10° NNE 11:07:22 74° ESE 11:12:35 10° S
Cosmos 1455 2.2 11:06:53 10° N 11:10:38 81° W 11:14:25 10° S
ARIANE 44L R/B 4.2 11:02:45 10° WSW 11:10:56 26° SSW 11:13:46 10° SE
Cosmos 1898 Rocket 4.0 11:09:16 10° N 11:14:03 38° ENE 11:18:52 10° SE
Cosmos 1758 Rocket 4.0 11:10:06 10° SSE 11:14:08 38° E 11:18:07 10° NNE
Centaur Rocket 1.7 11:15:14 10° WNW 11:17:14 81° SSW 11:19:45 15° ESE
ARGOS 3.3 11:16:24 10° SSE 11:21:44 58° ENE 11:27:02 10° N
Cosmos 405 Rocket 3.2 11:19:46 10° SSE 11:23:14 36° E 11:26:46 10° NNE
Maqsat-H 2.6 11:17:47 10° WSW 11:24:14 39° S 11:26:37 18° ESE
Aurora 2 Rocket 4.0 11:18:21 10° WSW 11:25:03 88° SSE 11:34:32 10° ENE
H-2A R/B 2.5 11:20:01 10° S 11:25:27 69° WSW 11:30:47 10° NNW
Okean-O 3.5 11:22:22 13° SE 11:25:35 29° ENE 11:29:22 10° NNE
Cosmos 2082 Rocket 3.3 11:23:33 10° SSE 11:27:42 21° ESE 11:31:51 10° ENE
Cosmos 1464 Rocket 4.2 11:23:56 10° NNE 11:29:51 47° E 11:35:42 10° SSE
Cosmos 1833 Rocket 2.7 11:24:57 10° S 11:30:31 62° ESE 11:36:04 10° NNE
SJ-11-01 4.3 11:26:00 10° S 11:30:44 87° W 11:35:27 10° NNW
Cosmos 1408 3.3 11:28:56 10° SSE 11:32:16 32° E 11:35:33 10° NNE
Tsikada Rocket 3.9 11:26:58 10° S 11:33:04 68° E 11:39:10 10° N
SAR-Lupe-4 4.4 11:30:45 10° NE 11:33:51 28° ESE 11:35:16 21° SE
Cosmos 2058 Rocket 3.4 11:31:58 10° NNW 11:36:18 67° W 11:40:43 10° S
USA 267 3.4 11:30:57 10° NE 11:37:13 49° SE 11:43:28 10° SSW
Tiangong 2.1 11:35:14 10° WNW 11:38:11 40° SW 11:39:46 22° SSE
CZ-2C R/B 2.1 11:39:38 10° WNW 11:43:19 41° SW 11:45:29 22° SSE
CZ-4 R/B 1.6 11:41:15 10° S 11:45:18 70° WSW 11:49:24 10° NNW
deb Centaur AC-2 4.0 11:44:52 10° SW 11:49:10 66° SSE 11:51:32 28° ENE
HJ-1C 3.2 11:47:28 24° S 11:49:19 84° W 11:52:33 10° NNW
Lacrosse 4 Rocket 3.6 11:46:25 10° NW 11:49:44 24° WSW 11:53:06 10° SSW
Ariane V96 H10-3 3.0 11:44:04 10° WSW 11:51:27 51° S 11:52:10 42° SE
Cosmos 1825 Rocket 3.4 11:49:09 10° S 11:53:33 88° E 11:57:53 10° N
Meteor 1-4 Rocket 4.3 11:51:35 10° NNW 11:54:56 34° W 11:58:20 10° SSW
